Home > Weather > Gänserndorf > Past weeks

Flag for Austria Past Weather in Gänserndorf, Lower Austria, Austria — Yesterday and Last 2 Weeks

Now
69 °F

Passing clouds.


Feels Like: 69 °F
Forecast: 53 / 76 °F
Wind: N/A

Location: Wien / Schwechat-Flughafen

Current Time: May 26, 2016 at 8:37:51 PM

Latest Report: May 26, 2016 at 8:00 PM


Visibility: 14 mi

Pressure: 29.98 "Hg

Humidity: 59%

Dew Point: 54 °F

Location of GänserndorfLocation

Past Weather in Gänserndorf — Graph

°F

Gänserndorf Temperature Yesterday

Maximum temperature yesterday: 69 °F (at 5:00 PM)
Minimum temperature yesterday: 56 °F (at 1:00 AM)
Average temperature yesterday: 62 °F

High & Low Weather Summary for the Past Weeks

 TemperatureHumidityPressure
High78 °F (May 23, 5:00 PM)99% (May 13, 12:00 AM)30.14 "Hg (May 13, 12:00 AM)
Low44 °F (May 16, 5:00 AM)36% (May 17, 1:00 PM)29.35 "Hg (May 13, 2:00 AM)
Average59 °F68%29.86 "Hg
* Reported May 11 7:00 PM — May 26 7:00 PM, Gänserndorf, Weather by CustomWeather, © 2016

Note: Actual official high and low records may vary slightly from our data, if they occured in-between our weather recording intervals... More about our weather records

Advertising

Gänserndorf Weather History for the Previous 24 Hours

Scroll right to see more
 ConditionsComfort  
Time TempWeatherWind HumidityBarometerVisibility
7:00 PM
Thu, May 26
71 °FPassing clouds.5 mph52%29.97 "Hg14 mi
6:00 PM72 °FPassing clouds.5 mph52%29.97 "Hg12 mi
5:00 PM73 °FPassing clouds.5 mph52%29.97 "Hg19 mi
4:00 PM72 °FPassing clouds.6 mph55%29.98 "Hg12 mi
3:00 PM71 °FPassing clouds.6 mph55%29.99 "Hg13 mi
2:00 PM70 °FPassing clouds.7 mph59%30.00 "Hg11 mi
1:00 PM69 °FScattered clouds.6 mph65%30.01 "Hg12 mi
12:00 PM67 °FScattered clouds.7 mph66%30.01 "Hg10 mi
11:00 AM66 °FScattered clouds.6 mph73%30.02 "Hg6 mi
10:00 AM63 °FPartly sunny.6 mph76%30.02 "Hg6 mi
9:00 AM63 °FScattered clouds.6 mph73%30.01 "Hg6 mi
8:00 AM60 °FScattered clouds.5 mph82%30.01 "Hg5 mi
7:00 AM57 °FOvercast.6 mph89%30.01 "Hg4 mi
6:00 AM57 °FPartly sunny.6 mph88%29.99 "Hg6 mi
5:00 AM57 °FPassing clouds.N/A91%29.98 "Hg5 mi
4:00 AM54 °FPassing clouds.N/A94%29.97 "Hg5 mi
3:00 AM55 °FPassing clouds.N/A93%29.96 "Hg6 mi
2:00 AM59 °FPassing clouds.3 mph84%29.95 "Hg7 mi
1:00 AM60 °FPassing clouds.5 mph83%29.94 "Hg7 mi
12:00 AM58 °FPassing clouds.N/A86%29.95 "Hg8 mi
11:00 PM
Wed, May 25
59 °FPassing clouds.N/A83%29.93 "Hg10 mi
10:00 PM60 °FPassing clouds.5 mph80%29.92 "Hg14 mi
9:00 PM63 °FPassing clouds.6 mph73%29.91 "Hg17 mi
8:00 PM65 °FPassing clouds.6 mph67%29.88 "Hg19 mi
Weather by CustomWeather, © 2016

See weather overviewHow to use our weather pages